Regional Weather Roundup
Issued by NWS Newport/Morehead, NC

Current Version | Previous Version | Text Only | Print | Product List | Glossary Off
Versions: 1 2 3 4 5 6 7 8 9 10 11 12 13 14 15 16 17 18 19 20 21 22 23 24 25 26 27 28 29 30 31 32 33 34 35 36 37 38 39 40 41 42 43 44 45 46 47 48 49 50
000 ASUS42 KMHX 311913 RWRMHX WEATHER ROUNDUP FOR EASTERN NORTH CAROLINA NATIONAL WEATHER SERVICE NEWPORT/MOREHEAD CITY NC 300 PM EDT FRI JUL 31 2015 NOTE: "FAIR" INDICATES FEW OR NO CLOUDS BELOW 12,000 FEET WITH NO SIGNIFICANT WEATHER AND/OR OBSTRUCTIONS TO VISIBILITY NCZ015>017-031-032-045>047-102-103-312000- NORTH COAST CITY SKY/WX TMP DP RH WIND PRES REMARKS EDENTON N/A 89 67 48 NE9 29.90S ELIZABETH CITY SUNNY 88 62 41 NE16 29.89F KITTY HAWK MOCLDY 86 68 54 N10G16 29.89S MANTEO MOSUNNY 85 72 63 NE12 29.90S $$ NCZ045>047-081-094-103-104-312000- CENTRAL COAST CITY SKY/WX TMP DP RH WIND PRES REMARKS FRISCO CLOUDY 83 74 74 NE9 29.89R SWANQUARTER N/A 88 N/A N/A N6G14 29.85S $$ NCZ095-097-098-100-101-312000- SOUTHERN COAST CITY SKY/WX TMP DP RH WIND PRES REMARKS BEAUFORT MOSUNNY 90 77 65 NW10 29.88S HX 103 CEDAR ISLAND N/A 88 N/A N/A NW10 29.91S JACKSONVILLE MOSUNNY 90 74 59 NW6 29.88F PINEY ISLAND PTCLDY N/A N/A N/A MISG 29.88F WILMINGTON PTSUNNY 91 75 59 SW5 29.89F HX 101 $$ NCZ011>013-027>030-043-044-078>080-089-090>093-098-312000- COASTAL PLAIN CITY SKY/WX TMP DP RH WIND PRES REMARKS AHOSKIE SUNNY 87 67 51 NW6 29.91F CLINTON SUNNY 92 71 50 NE8 29.90F ELIZABETHTOWN MOSUNNY 92 69 47 CALM 29.90F GOLDSBORO SUNNY 92 69 47 VRB3 29.88F GREENVILLE MOSUNNY 91 72 52 CALM 29.92F HAVELOCK MOSUNNY 91 76 61 N9 29.90S HX 103 KENANSVILLE MOSUNNY N/A N/A N/A CALM 29.91F KINSTON MOSUNNY 90 72 55 NW5 29.90F NEW BERN PTSUNNY 89 73 59 N5 29.90F RICHLANDS MOSUNNY 90 72 55 NW6 29.89F ROCKY MOUNT SUNNY 93 63 36 VRB7 29.91F WASHINGTON SUNNY 88 74 63 NE6 29.90F WHITEVILLE MOSUNNY 92 73 53 CALM 29.89F HX 101 $$ AMZ130-135-150-152-154-156-158-170-250-252-270-ANZ085-086-088-633-658-670-312000- MARINE OBSERVATIONS STATION/POSITION TIME TEMP WIND PRES WAVE SWELL AIR SEA DIR/SP/G HT/PER HT/PER (UTC) (F) (DEG/KT/KT) (MB) (FT/S) (FT/S) CHESAPEAKE LIGHT 1900 81 20/ 10/ 11 1012.8 64 E VA BEACH 1850 81 82 20/ 16/ 19 1011.1 4/ 8 3/ 8 DUCK 1800 78 69 10/ 9/ 11 1011.8 2 E DUCK 1811 80 N/A 3/ 4 OREGON INLET 1800 83 84 350/ 11/ 16 1012.2 13E OREGON INLT 1900 82 N/A 4/ 9 2/11 HATTERAS CG 1800 82 82 360/ 13/ 17 1011.6 DIAMOND BUOY 1850 82 86 10/ 8/ 10 1012.3 4/ 9 3/ 9 CAPE LOOKOUT 1900 85 230/ 6/ 8 1011.8 BEAUFORT LAB 1800 87 84 330/ 7/ 10 1011.3 30 SE NEW RVR IN NOT AVBL 27 SE WRIGHTSVLE 1800 81 83 250/ 4/ 6 N/A 5 SE WRIGHTSVLE 1808 85 83 160/ 6/ 8 1012.7 225 S CAPE HAT 1850 82 81 250/ 17/ 21 1015.4 7/ 8 41 SE CHARLESTON 1850 82 84 220/ 12/ 14 1013.0 3/ 7 2/ 7 $$

USA.gov is the U.S. government's official web portal to all federal, state and local government web resources and services.